Time,TemperatureF,DewpointF,PressureIn,WindDirection,WindDirectionDegrees,WindSpeedMPH,WindSpeedGustMPH,Humidity,HourlyPrecipIn,Conditions,Clouds,dailyrainin,SoftwareType,DateUTC
2013-05-25 00:00:00,47.8,46.2,30.29,NNW,340,0.0,0.0,94,0.00,,BKN055,0.00,VWS V14.00,2013-05-25 04:00:00,
2013-05-25 00:01:00,47.8,46.2,30.29,NNW,340,0.0,0.0,94,0.00,,BKN055,0.00,VWS V14.00,2013-05-25 04:01:00,
2013-05-25 00:10:00,47.5,46.1,30.29,NNW,340,0.0,1.0,95,0.00,,BKN055,0.00,VWS V14.00,2013-05-25 04:10:00,
2013-05-25 00:11:00,47.5,46.1,30.29,NNW,340,0.0,1.0,95,0.00,,BKN055,0.00,VWS V14.00,2013-05-25 04:11:00,
2013-05-25 00:20:00,47.3,45.9,30.29,NNW,341,1.0,2.0,95,0.00,,BKN055,0.00,VWS V14.00,2013-05-25 04:20:00,
2013-05-25 00:21:00,47.3,45.9,30.29,NNW,341,1.0,2.0,95,0.00,,BKN055,0.00,VWS V14.00,2013-05-25 04:21:00,
2013-05-25 00:30:00,47.0,45.7,30.29,NNW,340,0.0,2.0,95,0.00,,BKN055,0.00,VWS V14.00,2013-05-25 04:30:00,
2013-05-25 00:31:00,47.0,45.7,30.29,NNW,340,0.0,2.0,95,0.00,,BKN055,0.00,VWS V14.00,2013-05-25 04:31:00,
2013-05-25 00:40:00,46.9,45.5,30.30,NNW,340,0.0,0.0,95,0.00,,BKN055,0.00,VWS V14.00,2013-05-25 04:40:00,
2013-05-25 00:41:00,46.9,45.5,30.30,NNW,340,0.0,0.0,95,0.00,,BKN055,0.00,VWS V14.00,2013-05-25 04:41:00,
2013-05-25 00:50:00,46.6,45.2,30.29,NNW,340,0.0,2.0,95,0.00,,BKN055,0.00,VWS V14.00,2013-05-25 04:50:00,
2013-05-25 00:51:00,46.6,45.2,30.29,NNW,340,0.0,2.0,95,0.00,,BKN055,0.00,VWS V14.00,2013-05-25 04:51:00,
2013-05-25 01:00:00,46.3,45.0,30.29,NNW,340,1.0,2.0,95,0.00,,BKN055,0.00,VWS V14.00,2013-05-25 05:00:00,
2013-05-25 01:01:00,46.3,45.0,30.29,NNW,340,1.0,2.0,95,0.00,,BKN055,0.00,VWS V14.00,2013-05-25 05:01:00,
2013-05-25 01:10:00,46.0,44.7,30.30,NNW,340,0.0,1.0,95,0.00,,BKN055,0.00,VWS V14.00,2013-05-25 05:10:00,
2013-05-25 01:11:00,46.0,44.7,30.30,NNW,340,0.0,1.0,95,0.00,,BKN055,0.00,VWS V14.00,2013-05-25 05:11:00,
2013-05-25 01:20:00,45.8,44.5,30.29,NNW,339,0.0,1.0,95,0.00,,BKN055,0.00,VWS V14.00,2013-05-25 05:20:00,
2013-05-25 01:21:00,45.8,44.5,30.29,NNW,339,0.0,1.0,95,0.00,,BKN055,0.00,VWS V14.00,2013-05-25 05:21:00,
2013-05-25 01:30:00,45.6,44.5,30.29,NNW,338,0.0,3.0,96,0.00,,BKN055,0.00,VWS V14.00,2013-05-25 05:30:00,
2013-05-25 01:31:00,45.6,44.5,30.29,NNW,338,0.0,3.0,96,0.00,,BKN055,0.00,VWS V14.00,2013-05-25 05:31:00,
2013-05-25 01:40:00,45.5,44.4,30.29,NNW,340,0.0,2.0,96,0.00,,BKN055,0.00,VWS V14.00,2013-05-25 05:40:00,
2013-05-25 01:41:00,45.5,44.4,30.29,NNW,340,0.0,2.0,96,0.00,,BKN055,0.00,VWS V14.00,2013-05-25 05:41:00,
2013-05-25 01:50:00,45.3,44.2,30.29,NNW,340,0.0,0.0,96,0.00,,BKN055,0.00,VWS V14.00,2013-05-25 05:50:00,
2013-05-25 01:51:00,45.3,44.2,30.29,NNW,340,0.0,0.0,96,0.00,,BKN055,0.00,VWS V14.00,2013-05-25 05:51:00,
2013-05-25 02:00:00,45.0,43.9,30.30,NNW,340,0.0,0.0,96,0.00,,BKN055,0.00,VWS V14.00,2013-05-25 06:00:00,
2013-05-25 02:01:00,45.0,43.9,30.30,NNW,340,0.0,0.0,96,0.00,,BKN055,0.00,VWS V14.00,2013-05-25 06:01:00,
2013-05-25 02:10:00,44.6,43.5,30.29,NNW,338,0.0,2.0,96,0.00,,BKN055,0.00,VWS V14.00,2013-05-25 06:10:00,
2013-05-25 02:11:00,44.6,43.5,30.29,NNW,338,0.0,2.0,96,0.00,,BKN055,0.00,VWS V14.00,2013-05-25 06:11:00,
2013-05-25 02:20:00,44.5,43.4,30.30,NNW,338,0.0,1.0,96,0.00,,BKN055,0.00,VWS V14.00,2013-05-25 06:20:00,
2013-05-25 02:21:00,44.5,43.4,30.30,NNW,338,0.0,1.0,96,0.00,,BKN055,0.00,VWS V14.00,2013-05-25 06:21:00,
2013-05-25 02:30:00,44.4,43.6,30.29,NNW,339,0.0,1.0,97,0.00,,BKN055,0.00,VWS V14.00,2013-05-25 06:30:00,
2013-05-25 02:31:00,44.4,43.6,30.29,NNW,339,0.0,1.0,97,0.00,,BKN055,0.00,VWS V14.00,2013-05-25 06:31:00,
2013-05-25 02:40:00,44.1,43.3,30.29,NNW,340,1.0,2.0,97,0.00,,BKN055,0.00,VWS V14.00,2013-05-25 06:40:00,
2013-05-25 02:41:00,44.1,43.3,30.29,NNW,340,1.0,2.0,97,0.00,,BKN055,0.00,VWS V14.00,2013-05-25 06:41:00,
2013-05-25 02:50:00,43.9,43.1,30.29,NNW,347,1.0,3.0,97,0.00,,BKN055,0.00,VWS V14.00,2013-05-25 06:50:00,
2013-05-25 02:51:00,43.9,43.1,30.29,NNW,347,1.0,3.0,97,0.00,,BKN055,0.00,VWS V14.00,2013-05-25 06:51:00,
2013-05-25 03:00:00,43.7,42.9,30.29,NNW,346,0.0,1.0,97,0.00,,BKN055,0.00,VWS V14.00,2013-05-25 07:00:00,
2013-05-25 03:01:00,43.7,42.9,30.29,NNW,346,0.0,1.0,97,0.00,,BKN055,0.00,VWS V14.00,2013-05-25 07:01:00,
2013-05-25 03:10:00,43.7,42.9,30.29,NNW,346,1.0,3.0,97,0.00,,BKN055,0.00,VWS V14.00,2013-05-25 07:10:00,
2013-05-25 03:11:00,43.7,42.9,30.29,NNW,346,1.0,3.0,97,0.00,,BKN055,0.00,VWS V14.00,2013-05-25 07:11:00,
2013-05-25 03:20:00,43.6,42.8,30.29,NNW,347,0.0,3.0,97,0.00,,BKN055,0.00,VWS V14.00,2013-05-25 07:20:00,
2013-05-25 03:21:00,43.6,42.8,30.29,NNW,347,0.0,3.0,97,0.00,,BKN055,0.00,VWS V14.00,2013-05-25 07:21:00,
2013-05-25 03:30:00,43.5,42.7,30.29,NNW,345,0.0,3.0,97,0.00,,BKN055,0.00,VWS V14.00,2013-05-25 07:30:00,
2013-05-25 03:31:00,43.5,42.7,30.29,NNW,345,0.0,3.0,97,0.00,,BKN055,0.00,VWS V14.00,2013-05-25 07:31:00,
2013-05-25 03:40:00,43.1,42.3,30.28,NNW,345,0.0,2.0,97,0.00,,BKN055,0.00,VWS V14.00,2013-05-25 07:40:00,
2013-05-25 03:41:00,43.1,42.3,30.28,NNW,345,0.0,2.0,97,0.00,,BKN055,0.00,VWS V14.00,2013-05-25 07:41:00,
2013-05-25 03:50:00,42.9,42.1,30.28,NNW,348,0.0,3.0,97,0.00,,BKN055,0.00,VWS V14.00,2013-05-25 07:50:00,
2013-05-25 03:51:00,42.9,42.1,30.28,NNW,348,0.0,3.0,97,0.00,,BKN055,0.00,VWS V14.00,2013-05-25 07:51:00,
2013-05-25 04:00:00,42.8,42.0,30.28,NNW,346,0.0,2.0,97,0.00,,BKN055,0.00,VWS V14.00,2013-05-25 08:00:00,
2013-05-25 04:01:00,42.8,42.0,30.28,NNW,346,0.0,2.0,97,0.00,,BKN055,0.00,VWS V14.00,2013-05-25 08:01:00,
2013-05-25 04:10:00,42.8,42.0,30.28,NNW,346,0.0,0.0,97,0.00,,BKN055,0.00,VWS V14.00,2013-05-25 08:10:00,
2013-05-25 04:11:00,42.8,42.0,30.28,NNW,346,0.0,0.0,97,0.00,,BKN055,0.00,VWS V14.00,2013-05-25 08:11:00,
2013-05-25 04:20:00,42.7,41.9,30.28,NNW,347,0.0,2.0,97,0.00,,BKN055,0.00,VWS V14.00,2013-05-25 08:20:00,
2013-05-25 04:21:00,42.7,41.9,30.28,NNW,347,0.0,2.0,97,0.00,,BKN055,0.00,VWS V14.00,2013-05-25 08:21:00,
2013-05-25 04:30:00,42.5,41.7,30.28,NNW,347,0.0,0.0,97,0.00,,BKN055,0.00,VWS V14.00,2013-05-25 08:30:00,
2013-05-25 04:31:00,42.5,41.7,30.28,NNW,347,0.0,0.0,97,0.00,,BKN055,0.00,VWS V14.00,2013-05-25 08:31:00,
2013-05-25 04:40:00,42.4,41.6,30.28,NNW,347,0.0,0.0,97,0.00,,BKN055,0.00,VWS V14.00,2013-05-25 08:40:00,
2013-05-25 04:41:00,42.4,41.6,30.28,NNW,347,0.0,0.0,97,0.00,,BKN055,0.00,VWS V14.00,2013-05-25 08:41:00,
2013-05-25 04:50:00,42.3,41.5,30.28,NNW,346,0.0,0.0,97,0.00,,BKN055,0.00,VWS V14.00,2013-05-25 08:50:00,
2013-05-25 04:51:00,42.3,41.5,30.28,NNW,346,0.0,0.0,97,0.00,,BKN055,0.00,VWS V14.00,2013-05-25 08:51:00,
2013-05-25 05:00:00,42.0,41.2,30.29,NNW,347,0.0,1.0,97,0.00,,BKN055,0.00,VWS V14.00,2013-05-25 09:00:00,
2013-05-25 05:01:00,42.0,41.2,30.29,NNW,347,0.0,1.0,97,0.00,,BKN055,0.00,VWS V14.00,2013-05-25 09:01:00,
2013-05-25 05:10:00,41.8,41.0,30.30,NNW,347,0.0,0.0,97,0.00,,BKN055,0.00,VWS V14.00,2013-05-25 09:10:00,
2013-05-25 05:11:00,41.8,41.0,30.30,NNW,347,0.0,0.0,97,0.00,,BKN055,0.00,VWS V14.00,2013-05-25 09:11:00,
2013-05-25 05:20:00,41.6,40.8,30.30,NNW,347,0.0,2.0,97,0.00,,BKN055,0.00,VWS V14.00,2013-05-25 09:20:00,
2013-05-25 05:21:00,41.6,40.8,30.30,NNW,347,0.0,2.0,97,0.00,,BKN055,0.00,VWS V14.00,2013-05-25 09:21:00,
2013-05-25 05:30:00,41.8,41.3,30.29,North,355,1.0,2.0,98,0.00,,BKN055,0.00,VWS V14.00,2013-05-25 09:30:00,
2013-05-25 05:31:00,41.8,41.3,30.29,North,355,1.0,2.0,98,0.00,,BKN055,0.00,VWS V14.00,2013-05-25 09:31:00,
2013-05-25 05:40:00,41.9,41.4,30.29,North,355,0.0,3.0,98,0.00,,BKN055,0.00,VWS V14.00,2013-05-25 09:40:00,
2013-05-25 05:41:00,41.9,41.4,30.29,North,355,0.0,3.0,98,0.00,,BKN055,0.00,VWS V14.00,2013-05-25 09:41:00,
2013-05-25 05:50:00,42.1,41.6,30.29,North,355,0.0,1.0,98,0.00,,BKN055,0.00,VWS V14.00,2013-05-25 09:50:00,
2013-05-25 05:51:00,42.1,41.6,30.29,North,355,0.0,1.0,98,0.00,,BKN055,0.00,VWS V14.00,2013-05-25 09:51:00,
2013-05-25 06:00:00,42.2,41.7,30.30,North,355,0.0,1.0,98,0.00,,BKN055,0.00,VWS V14.00,2013-05-25 10:00:00,
2013-05-25 06:01:00,42.2,41.7,30.30,North,355,0.0,1.0,98,0.00,,BKN055,0.00,VWS V14.00,2013-05-25 10:01:00,
2013-05-25 06:10:00,41.9,41.4,30.30,North,355,0.0,2.0,98,0.00,,BKN055,0.00,VWS V14.00,2013-05-25 10:10:00,
2013-05-25 06:11:00,41.9,41.4,30.30,North,355,0.0,2.0,98,0.00,,BKN055,0.00,VWS V14.00,2013-05-25 10:11:00,
2013-05-25 06:20:00,41.6,41.1,30.31,North,355,0.0,2.0,98,0.00,,BKN055,0.00,VWS V14.00,2013-05-25 10:20:00,
2013-05-25 06:21:00,41.6,41.1,30.31,North,355,0.0,2.0,98,0.00,,BKN055,0.00,VWS V14.00,2013-05-25 10:21:00,
2013-05-25 06:30:00,41.8,41.3,30.31,NNW,338,0.0,3.0,98,0.00,,BKN055,0.00,VWS V14.00,2013-05-25 10:30:00,
2013-05-25 06:31:00,41.8,41.3,30.31,NNW,338,0.0,3.0,98,0.00,,BKN055,0.00,VWS V14.00,2013-05-25 10:31:00,
2013-05-25 06:40:00,42.2,41.7,30.31,NNW,338,0.0,3.0,98,0.00,,BKN055,0.00,VWS V14.00,2013-05-25 10:40:00,
2013-05-25 06:41:00,42.2,41.7,30.31,NNW,338,0.0,3.0,98,0.00,,BKN055,0.00,VWS V14.00,2013-05-25 10:41:00,
2013-05-25 06:50:00,42.5,42.0,30.31,NNW,338,0.0,2.0,98,0.00,,BKN055,0.00,VWS V14.00,2013-05-25 10:50:00,
2013-05-25 06:51:00,42.5,42.0,30.31,NNW,338,0.0,2.0,98,0.00,,BKN055,0.00,VWS V14.00,2013-05-25 10:51:00,
2013-05-25 07:00:00,42.7,42.2,30.31,NNW,341,0.0,1.0,98,0.00,,BKN055,0.00,VWS V14.00,2013-05-25 11:00:00,
2013-05-25 07:01:00,42.7,42.2,30.31,NNW,341,0.0,1.0,98,0.00,,BKN055,0.00,VWS V14.00,2013-05-25 11:01:00,
2013-05-25 07:10:00,42.9,42.4,30.33,NNW,340,2.0,3.0,98,0.00,,BKN055,0.00,VWS V14.00,2013-05-25 11:10:00,
2013-05-25 07:11:00,42.9,42.4,30.33,NNW,340,2.0,3.0,98,0.00,,BKN055,0.00,VWS V14.00,2013-05-25 11:11:00,
2013-05-25 07:20:00,43.0,42.5,30.32,NNW,348,0.0,4.0,98,0.00,,BKN055,0.00,VWS V14.00,2013-05-25 11:20:00,
2013-05-25 07:21:00,43.0,42.5,30.32,NNW,348,0.0,4.0,98,0.00,,BKN055,0.00,VWS V14.00,2013-05-25 11:21:00,
2013-05-25 07:30:00,43.4,43.1,30.33,NNW,348,2.0,2.0,99,0.00,,BKN055,0.00,VWS V14.00,2013-05-25 11:30:00,
2013-05-25 07:31:00,43.4,43.1,30.33,NNW,348,2.0,2.0,99,0.00,,BKN055,0.00,VWS V14.00,2013-05-25 11:31:00,
2013-05-25 07:40:00,43.5,43.0,30.33,NNW,333,0.0,3.0,98,0.00,,BKN055,0.00,VWS V14.00,2013-05-25 11:40:00,
2013-05-25 07:41:00,43.5,43.0,30.33,NNW,333,0.0,3.0,98,0.00,,BKN055,0.00,VWS V14.00,2013-05-25 11:41:00,
2013-05-25 07:50:00,43.8,43.5,30.33,South,169,0.0,0.0,99,0.00,,BKN055,0.00,VWS V14.00,2013-05-25 11:50:00,
2013-05-25 07:51:00,43.8,43.5,30.33,South,169,0.0,0.0,99,0.00,,BKN055,0.00,VWS V14.00,2013-05-25 11:51:00,
2013-05-25 08:00:00,44.2,43.9,30.32,NNW,329,0.0,3.0,99,0.00,,BKN055,0.00,VWS V14.00,2013-05-25 12:00:00,
2013-05-25 08:01:00,44.2,43.9,30.32,NNW,329,0.0,3.0,99,0.00,,BKN055,0.00,VWS V14.00,2013-05-25 12:01:00,
2013-05-25 08:10:00,44.9,44.6,30.33,NNW,337,0.0,4.0,99,0.00,,BKN055,0.00,VWS V14.00,2013-05-25 12:10:00,
2013-05-25 08:11:00,44.9,44.6,30.33,NNW,337,0.0,4.0,99,0.00,,BKN055,0.00,VWS V14.00,2013-05-25 12:11:00,
2013-05-25 08:20:00,45.7,45.4,30.32,NNW,338,0.0,3.0,99,0.00,,BKN055,0.00,VWS V14.00,2013-05-25 12:20:00,
2013-05-25 08:21:00,45.7,45.4,30.32,NNW,338,0.0,3.0,99,0.00,,BKN055,0.00,VWS V14.00,2013-05-25 12:21:00,
2013-05-25 08:30:00,46.8,46.5,30.32,NNW,336,0.0,3.0,99,0.00,,BKN055,0.00,VWS V14.00,2013-05-25 12:30:00,
2013-05-25 08:31:00,46.8,46.5,30.32,NNW,336,0.0,3.0,99,0.00,,BKN055,0.00,VWS V14.00,2013-05-25 12:31:00,
2013-05-25 08:40:00,48.6,48.3,30.33,NNW,340,0.0,4.0,99,0.00,,BKN055,0.00,VWS V14.00,2013-05-25 12:40:00,
2013-05-25 08:41:00,48.6,48.3,30.33,NNW,340,0.0,4.0,99,0.00,,BKN055,0.00,VWS V14.00,2013-05-25 12:41:00,
2013-05-25 08:50:00,49.5,49.5,30.34,North,355,0.0,3.0,100,0.00,,BKN055,0.00,VWS V14.00,2013-05-25 12:50:00,
2013-05-25 08:51:00,49.5,49.5,30.34,North,355,0.0,3.0,100,0.00,,BKN055,0.00,VWS V14.00,2013-05-25 12:51:00,
2013-05-25 09:00:00,50.3,50.0,30.35,NW,325,0.0,4.0,99,0.00,,BKN055,0.00,VWS V14.00,2013-05-25 13:00:00,
2013-05-25 09:01:00,50.3,50.0,30.35,NW,325,0.0,4.0,99,0.00,,BKN055,0.00,VWS V14.00,2013-05-25 13:01:00,
2013-05-25 09:10:00,51.7,51.4,30.34,NNW,336,0.0,0.0,99,0.00,,BKN055,0.00,VWS V14.00,2013-05-25 13:10:00,
2013-05-25 09:11:00,51.7,51.4,30.34,NNW,336,0.0,0.0,99,0.00,,BKN055,0.00,VWS V14.00,2013-05-25 13:11:00,
2013-05-25 09:20:00,52.8,52.0,30.34,NNW,346,0.0,3.0,97,0.00,,BKN055,0.00,VWS V14.00,2013-05-25 13:20:00,
2013-05-25 09:21:00,52.8,52.0,30.34,NNW,346,0.0,3.0,97,0.00,,BKN055,0.00,VWS V14.00,2013-05-25 13:21:00,
2013-05-25 09:30:00,54.1,52.1,30.35,ENE,57,0.0,4.0,93,0.00,,BKN055,0.00,VWS V14.00,2013-05-25 13:30:00,
2013-05-25 09:31:00,54.1,52.1,30.35,ENE,57,0.0,4.0,93,0.00,,BKN055,0.00,VWS V14.00,2013-05-25 13:31:00,
2013-05-25 09:40:00,55.8,52.0,30.35,NE,53,0.0,5.0,87,0.00,,BKN055,0.00,VWS V14.00,2013-05-25 13:40:00,
2013-05-25 09:41:00,55.8,52.0,30.35,NE,53,0.0,5.0,87,0.00,,BKN055,0.00,VWS V14.00,2013-05-25 13:41:00,
2013-05-25 09:50:00,56.5,51.4,30.35,ENE,65,0.0,4.0,83,0.00,,BKN055,0.00,VWS V14.00,2013-05-25 13:50:00,
2013-05-25 09:51:00,56.5,51.4,30.35,ENE,65,0.0,4.0,83,0.00,,BKN055,0.00,VWS V14.00,2013-05-25 13:51:00,
2013-05-25 10:00:00,57.2,52.4,30.35,ENE,75,2.0,5.0,84,0.00,,BKN055,0.00,VWS V14.00,2013-05-25 14:00:00,
2013-05-25 10:01:00,57.2,52.4,30.35,ENE,75,2.0,5.0,84,0.00,,BKN055,0.00,VWS V14.00,2013-05-25 14:01:00,
2013-05-25 10:10:00,57.8,51.7,30.35,NNE,28,0.0,4.0,80,0.00,,BKN055,0.00,VWS V14.00,2013-05-25 14:10:00,
2013-05-25 10:11:00,57.8,51.7,30.35,NNE,28,0.0,4.0,80,0.00,,BKN055,0.00,VWS V14.00,2013-05-25 14:11:00,
2013-05-25 10:20:00,57.9,51.4,30.36,NNW,331,0.0,3.0,79,0.00,,BKN055,0.00,VWS V14.00,2013-05-25 14:20:00,
2013-05-25 10:21:00,57.9,51.4,30.36,NNW,331,0.0,3.0,79,0.00,,BKN055,0.00,VWS V14.00,2013-05-25 14:21:00,
2013-05-25 10:30:00,58.4,51.9,30.36,NNE,33,0.0,3.0,79,0.00,,BKN055,0.00,VWS V14.00,2013-05-25 14:30:00,
2013-05-25 10:31:00,58.4,51.9,30.36,NNE,33,0.0,3.0,79,0.00,,BKN055,0.00,VWS V14.00,2013-05-25 14:31:00,
2013-05-25 10:40:00,59.0,51.8,30.36,North,11,0.0,1.0,77,0.00,,BKN055,0.00,VWS V14.00,2013-05-25 14:40:00,
2013-05-25 10:41:00,59.0,51.8,30.36,North,11,0.0,1.0,77,0.00,,BKN055,0.00,VWS V14.00,2013-05-25 14:41:00,
2013-05-25 10:50:00,59.7,52.5,30.36,ENE,59,2.0,3.0,77,0.00,,BKN055,0.00,VWS V14.00,2013-05-25 14:50:00,
2013-05-25 10:51:00,59.7,52.5,30.36,ENE,59,2.0,3.0,77,0.00,,BKN055,0.00,VWS V14.00,2013-05-25 14:51:00,
2013-05-25 11:00:00,60.3,53.1,30.35,ENE,65,3.0,4.0,77,0.00,,BKN055,0.00,VWS V14.00,2013-05-25 15:00:00,
2013-05-25 11:01:00,60.3,53.1,30.35,ENE,65,3.0,4.0,77,0.00,,BKN055,0.00,VWS V14.00,2013-05-25 15:01:00,
2013-05-25 11:10:00,60.8,52.8,30.35,ENE,76,1.0,4.0,75,0.00,,BKN055,0.00,VWS V14.00,2013-05-25 15:10:00,
2013-05-25 11:11:00,60.8,52.8,30.35,ENE,76,1.0,4.0,75,0.00,,BKN055,0.00,VWS V14.00,2013-05-25 15:11:00,
2013-05-25 11:20:00,61.6,52.5,30.35,ENE,73,0.0,4.0,72,0.00,,BKN055,0.00,VWS V14.00,2013-05-25 15:20:00,
2013-05-25 11:21:00,61.6,52.5,30.35,ENE,73,0.0,4.0,72,0.00,,BKN055,0.00,VWS V14.00,2013-05-25 15:21:00,
2013-05-25 11:30:00,61.6,51.3,30.35,ENE,70,0.0,4.0,69,0.00,,BKN055,0.00,VWS V14.00,2013-05-25 15:30:00,
2013-05-25 11:31:00,61.6,51.3,30.35,ENE,70,0.0,4.0,69,0.00,,BKN055,0.00,VWS V14.00,2013-05-25 15:31:00,
2013-05-25 11:40:00,62.5,52.6,30.34,NE,42,0.0,4.0,70,0.00,,BKN055,0.00,VWS V14.00,2013-05-25 15:40:00,
2013-05-25 11:41:00,62.5,52.6,30.34,NE,42,0.0,4.0,70,0.00,,BKN055,0.00,VWS V14.00,2013-05-25 15:41:00,
2013-05-25 11:50:00,63.2,52.5,30.34,NNE,24,0.0,5.0,68,0.00,,BKN055,0.00,VWS V14.00,2013-05-25 15:50:00,
2013-05-25 11:51:00,63.2,52.5,30.34,NNE,24,0.0,5.0,68,0.00,,BKN055,0.00,VWS V14.00,2013-05-25 15:51:00,
2013-05-25 12:00:00,63.7,53.0,30.35,NE,37,0.0,5.0,68,0.00,,BKN055,0.00,VWS V14.00,2013-05-25 16:00:00,
2013-05-25 12:01:00,63.7,53.0,30.35,NE,37,0.0,5.0,68,0.00,,BKN055,0.00,VWS V14.00,2013-05-25 16:01:00,
2013-05-25 12:10:00,64.4,52.8,30.35,NE,51,0.0,0.0,66,0.00,,BKN055,0.00,VWS V14.00,2013-05-25 16:10:00,
2013-05-25 12:11:00,64.4,52.8,30.35,NE,51,0.0,0.0,66,0.00,,BKN055,0.00,VWS V14.00,2013-05-25 16:11:00,
2013-05-25 12:20:00,65.1,52.6,30.34,North,360,0.0,3.0,64,0.00,,BKN055,0.00,VWS V14.00,2013-05-25 16:20:00,
2013-05-25 12:21:00,65.1,52.6,30.34,North,360,0.0,3.0,64,0.00,,BKN055,0.00,VWS V14.00,2013-05-25 16:21:00,
2013-05-25 12:30:00,66.0,52.6,30.34,ENE,57,0.0,3.0,62,0.00,,BKN055,0.00,VWS V14.00,2013-05-25 16:30:00,
2013-05-25 12:31:00,66.0,52.6,30.34,ENE,57,0.0,3.0,62,0.00,,BKN055,0.00,VWS V14.00,2013-05-25 16:31:00,
2013-05-25 12:40:00,66.2,51.9,30.33,ENE,72,0.0,5.0,60,0.00,,BKN055,0.00,VWS V14.00,2013-05-25 16:40:00,
2013-05-25 12:41:00,66.2,51.9,30.33,ENE,72,0.0,5.0,60,0.00,,BKN055,0.00,VWS V14.00,2013-05-25 16:41:00,
2013-05-25 12:50:00,66.2,51.9,30.32,ENE,70,0.0,3.0,60,0.00,,BKN055,0.00,VWS V14.00,2013-05-25 16:50:00,
2013-05-25 12:51:00,66.2,51.9,30.32,ENE,70,0.0,3.0,60,0.00,,BKN055,0.00,VWS V14.00,2013-05-25 16:51:00,
2013-05-25 13:00:00,65.9,51.6,30.32,ENE,62,0.0,3.0,60,0.00,,BKN055,0.00,VWS V14.00,2013-05-25 17:00:00,
2013-05-25 13:01:00,65.9,51.6,30.32,ENE,62,0.0,3.0,60,0.00,,BKN055,0.00,VWS V14.00,2013-05-25 17:01:00,
2013-05-25 13:10:00,65.8,52.0,30.32,ENE,61,0.0,0.0,61,0.00,,BKN055,0.00,VWS V14.00,2013-05-25 17:10:00,
2013-05-25 13:11:00,65.8,52.0,30.32,ENE,61,0.0,0.0,61,0.00,,BKN055,0.00,VWS V14.00,2013-05-25 17:11:00,
2013-05-25 13:20:00,65.7,50.5,30.31,ENE,78,0.0,2.0,58,0.00,,BKN055,0.00,VWS V14.00,2013-05-25 17:20:00,
2013-05-25 13:21:00,65.7,50.5,30.31,ENE,78,0.0,2.0,58,0.00,,BKN055,0.00,VWS V14.00,2013-05-25 17:21:00,
2013-05-25 13:30:00,65.6,48.5,30.31,ENE,78,0.0,2.0,54,0.00,,BKN055,0.00,VWS V14.00,2013-05-25 17:30:00,
2013-05-25 13:31:00,65.6,48.5,30.31,ENE,78,0.0,2.0,54,0.00,,BKN055,0.00,VWS V14.00,2013-05-25 17:31:00,
2013-05-25 13:40:00,66.1,50.0,30.31,NNW,335,0.0,2.0,56,0.00,,BKN055,0.00,VWS V14.00,2013-05-25 17:40:00,
2013-05-25 13:41:00,66.1,50.0,30.31,NNW,335,0.0,2.0,56,0.00,,BKN055,0.00,VWS V14.00,2013-05-25 17:41:00,
2013-05-25 13:50:00,67.0,47.8,30.31,North,355,0.0,2.0,50,0.00,,BKN055,0.00,VWS V14.00,2013-05-25 17:50:00,
2013-05-25 13:51:00,67.0,47.8,30.31,North,355,0.0,2.0,50,0.00,,BKN055,0.00,VWS V14.00,2013-05-25 17:51:00,
2013-05-25 14:00:00,67.4,48.1,30.31,NNE,14,0.0,2.0,50,0.00,,BKN055,0.00,VWS V14.00,2013-05-25 18:00:00,
2013-05-25 14:01:00,67.4,48.1,30.31,NNE,14,0.0,2.0,50,0.00,,BKN055,0.00,VWS V14.00,2013-05-25 18:01:00,
2013-05-25 14:10:00,67.7,49.5,30.30,NNE,24,0.0,1.0,52,0.00,,BKN055,0.00,VWS V14.00,2013-05-25 18:10:00,
2013-05-25 14:11:00,67.7,49.5,30.30,NNE,24,0.0,1.0,52,0.00,,BKN055,0.00,VWS V14.00,2013-05-25 18:11:00,
2013-05-25 14:20:00,67.5,47.1,30.31,NNE,23,0.0,0.0,48,0.00,,BKN055,0.00,VWS V14.00,2013-05-25 18:20:00,
2013-05-25 14:21:00,67.5,47.1,30.31,NNE,23,0.0,0.0,48,0.00,,BKN055,0.00,VWS V14.00,2013-05-25 18:21:00,
2013-05-25 14:30:00,67.2,50.0,30.31,NNW,342,0.0,0.0,54,0.00,,BKN055,0.00,VWS V14.00,2013-05-25 18:30:00,
2013-05-25 14:31:00,67.2,50.0,30.31,NNW,342,0.0,0.0,54,0.00,,BKN055,0.00,VWS V14.00,2013-05-25 18:31:00,
2013-05-25 14:40:00,67.5,50.3,30.30,NNW,343,0.0,0.0,54,0.00,,BKN055,0.00,VWS V14.00,2013-05-25 18:40:00,
2013-05-25 14:41:00,67.5,50.3,30.30,NNW,343,0.0,0.0,54,0.00,,BKN055,0.00,VWS V14.00,2013-05-25 18:41:00,
2013-05-25 14:50:00,67.0,49.8,30.31,NW,307,0.0,3.0,54,0.00,,BKN055,0.00,VWS V14.00,2013-05-25 18:50:00,
2013-05-25 14:51:00,67.0,49.8,30.31,NW,307,0.0,3.0,54,0.00,,BKN055,0.00,VWS V14.00,2013-05-25 18:51:00,
2013-05-25 15:00:00,66.8,50.1,30.31,NW,306,0.0,2.0,55,0.00,,BKN055,0.00,VWS V14.00,2013-05-25 19:00:00,
2013-05-25 15:01:00,66.8,50.1,30.31,NW,306,0.0,2.0,55,0.00,,BKN055,0.00,VWS V14.00,2013-05-25 19:01:00,
2013-05-25 15:10:00,66.5,49.8,30.30,WNW,303,0.0,3.0,55,0.00,,BKN055,0.00,VWS V14.00,2013-05-25 19:10:00,
2013-05-25 15:11:00,66.5,49.8,30.30,WNW,303,0.0,3.0,55,0.00,,BKN055,0.00,VWS V14.00,2013-05-25 19:11:00,
2013-05-25 15:20:00,66.1,50.4,30.30,West,270,0.0,4.0,57,0.00,,BKN055,0.00,VWS V14.00,2013-05-25 19:20:00,
2013-05-25 15:21:00,66.1,50.4,30.30,West,270,0.0,4.0,57,0.00,,BKN055,0.00,VWS V14.00,2013-05-25 19:21:00,
2013-05-25 15:30:00,66.0,53.1,30.30,WNW,284,0.0,1.0,63,0.00,,BKN055,0.00,VWS V14.00,2013-05-25 19:30:00,
2013-05-25 15:31:00,66.0,53.1,30.30,WNW,284,0.0,1.0,63,0.00,,BKN055,0.00,VWS V14.00,2013-05-25 19:31:00,
2013-05-25 15:40:00,66.1,51.8,30.30,WNW,284,0.0,0.0,60,0.00,,BKN055,0.00,VWS V14.00,2013-05-25 19:40:00,
2013-05-25 15:41:00,66.1,51.8,30.30,WNW,284,0.0,0.0,60,0.00,,BKN055,0.00,VWS V14.00,2013-05-25 19:41:00,
2013-05-25 15:50:00,66.1,50.9,30.30,WNW,284,0.0,1.0,58,0.00,,BKN055,0.00,VWS V14.00,2013-05-25 19:50:00,
2013-05-25 15:51:00,66.1,50.9,30.30,WNW,284,0.0,1.0,58,0.00,,BKN055,0.00,VWS V14.00,2013-05-25 19:51:00,
2013-05-25 16:00:00,66.6,51.8,30.29,WNW,284,0.0,0.0,59,0.00,,BKN055,0.00,VWS V14.00,2013-05-25 20:00:00,
2013-05-25 16:01:00,66.6,51.8,30.29,WNW,284,0.0,0.0,59,0.00,,BKN055,0.00,VWS V14.00,2013-05-25 20:01:00,
2013-05-25 16:10:00,67.1,53.7,30.28,WNW,283,0.0,2.0,62,0.00,,BKN055,0.00,VWS V14.00,2013-05-25 20:10:00,
2013-05-25 16:11:00,67.1,53.7,30.28,WNW,283,0.0,2.0,62,0.00,,BKN055,0.00,VWS V14.00,2013-05-25 20:11:00,
2013-05-25 16:20:00,67.9,51.2,30.28,NE,43,0.0,1.0,55,0.00,,BKN055,0.00,VWS V14.00,2013-05-25 20:20:00,
2013-05-25 16:21:00,67.9,51.2,30.28,NE,43,0.0,1.0,55,0.00,,BKN055,0.00,VWS V14.00,2013-05-25 20:21:00,
2013-05-25 16:30:00,68.5,53.2,30.27,ENE,76,0.0,1.0,58,0.00,,BKN055,0.00,VWS V14.00,2013-05-25 20:30:00,
2013-05-25 16:31:00,68.5,53.2,30.27,ENE,76,0.0,1.0,58,0.00,,BKN055,0.00,VWS V14.00,2013-05-25 20:31:00,
2013-05-25 16:40:00,68.6,52.3,30.27,ENE,76,0.0,0.0,56,0.00,,BKN055,0.00,VWS V14.00,2013-05-25 20:40:00,
2013-05-25 16:41:00,68.6,52.3,30.27,ENE,76,0.0,0.0,56,0.00,,BKN055,0.00,VWS V14.00,2013-05-25 20:41:00,
2013-05-25 16:50:00,68.7,51.4,30.26,ENE,75,0.0,0.0,54,0.00,,BKN055,0.00,VWS V14.00,2013-05-25 20:50:00,
2013-05-25 16:51:00,68.7,51.4,30.26,ENE,75,0.0,0.0,54,0.00,,BKN055,0.00,VWS V14.00,2013-05-25 20:51:00,
2013-05-25 17:00:00,68.3,51.0,30.26,ENE,71,0.0,1.0,54,0.00,,BKN055,0.00,VWS V14.00,2013-05-25 21:00:00,
2013-05-25 17:01:00,68.3,51.0,30.26,ENE,71,0.0,1.0,54,0.00,,BKN055,0.00,VWS V14.00,2013-05-25 21:01:00,
2013-05-25 17:10:00,68.0,55.0,30.26,ENE,71,0.0,1.0,63,0.00,,BKN055,0.00,VWS V14.00,2013-05-25 21:10:00,
2013-05-25 17:11:00,68.0,55.0,30.26,ENE,71,0.0,1.0,63,0.00,,BKN055,0.00,VWS V14.00,2013-05-25 21:11:00,
2013-05-25 17:20:00,67.9,53.1,30.26,ENE,71,0.0,0.0,59,0.00,,BKN055,0.00,VWS V14.00,2013-05-25 21:20:00,
2013-05-25 17:21:00,67.9,53.1,30.26,ENE,71,0.0,0.0,59,0.00,,BKN055,0.00,VWS V14.00,2013-05-25 21:21:00,
2013-05-25 17:30:00,68.1,55.0,30.26,ENE,71,0.0,0.0,63,0.00,,BKN055,0.00,VWS V14.00,2013-05-25 21:30:00,
2013-05-25 17:31:00,68.1,55.0,30.26,ENE,71,0.0,0.0,63,0.00,,BKN055,0.00,VWS V14.00,2013-05-25 21:31:00,
2013-05-25 17:40:00,67.9,53.5,30.26,ENE,71,0.0,0.0,60,0.00,,BKN055,0.00,VWS V14.00,2013-05-25 21:40:00,
2013-05-25 17:41:00,67.9,53.5,30.26,ENE,71,0.0,0.0,60,0.00,,BKN055,0.00,VWS V14.00,2013-05-25 21:41:00,
2013-05-25 17:50:00,67.2,51.9,30.26,East,79,0.0,0.0,58,0.00,,BKN055,0.00,VWS V14.00,2013-05-25 21:50:00,
2013-05-25 17:51:00,67.2,51.9,30.26,East,79,0.0,0.0,58,0.00,,BKN055,0.00,VWS V14.00,2013-05-25 21:51:00,
2013-05-25 18:00:00,66.8,53.8,30.26,East,79,0.0,0.0,63,0.00,,BKN055,0.00,VWS V14.00,2013-05-25 22:00:00,
2013-05-25 18:01:00,66.8,53.8,30.26,East,79,0.0,0.0,63,0.00,,BKN055,0.00,VWS V14.00,2013-05-25 22:01:00,
2013-05-25 18:10:00,66.5,57.2,30.26,East,79,0.0,0.0,72,0.00,,BKN055,0.00,VWS V14.00,2013-05-25 22:10:00,
2013-05-25 18:11:00,66.5,57.2,30.26,East,79,0.0,0.0,72,0.00,,BKN055,0.00,VWS V14.00,2013-05-25 22:11:00,
2013-05-25 18:20:00,65.9,58.1,30.25,SSW,213,0.0,0.0,76,0.00,,BKN055,0.00,VWS V14.00,2013-05-25 22:20:00,
2013-05-25 18:21:00,65.9,58.1,30.25,SSW,213,0.0,0.0,76,0.00,,BKN055,0.00,VWS V14.00,2013-05-25 22:21:00,
2013-05-25 18:30:00,65.0,56.5,30.25,NW,306,0.0,1.0,74,0.00,,BKN055,0.00,VWS V14.00,2013-05-25 22:30:00,
2013-05-25 18:31:00,65.0,56.5,30.25,NW,306,0.0,1.0,74,0.00,,BKN055,0.00,VWS V14.00,2013-05-25 22:31:00,
2013-05-25 18:40:00,64.1,56.4,30.25,NW,306,0.0,0.0,76,0.00,,BKN055,0.00,VWS V14.00,2013-05-25 22:40:00,
2013-05-25 18:41:00,64.1,56.4,30.25,NW,306,0.0,0.0,76,0.00,,BKN055,0.00,VWS V14.00,2013-05-25 22:41:00,
2013-05-25 18:50:00,63.7,53.7,30.23,WSW,245,0.0,2.0,70,0.00,,BKN055,0.00,VWS V14.00,2013-05-25 22:50:00,
2013-05-25 18:51:00,63.7,53.7,30.23,WSW,245,0.0,2.0,70,0.00,,BKN055,0.00,VWS V14.00,2013-05-25 22:51:00,
2013-05-25 19:00:00,63.5,56.2,30.22,NNW,345,0.0,1.0,77,0.00,,BKN055,0.00,VWS V14.00,2013-05-25 23:00:00,
2013-05-25 19:01:00,63.5,56.2,30.22,NNW,345,0.0,1.0,77,0.00,,BKN055,0.00,VWS V14.00,2013-05-25 23:01:00,
2013-05-25 19:10:00,63.5,57.2,30.21,NNW,345,0.0,0.0,80,0.00,,BKN055,0.00,VWS V14.00,2013-05-25 23:10:00,
2013-05-25 19:11:00,63.5,57.2,30.21,NNW,345,0.0,0.0,80,0.00,,BKN055,0.00,VWS V14.00,2013-05-25 23:11:00,
2013-05-25 19:20:00,63.4,57.1,30.19,NNW,345,0.0,0.0,80,0.00,,BKN055,0.00,VWS V14.00,2013-05-25 23:20:00,
2013-05-25 19:21:00,63.4,57.1,30.19,NNW,345,0.0,0.0,80,0.00,,BKN055,0.00,VWS V14.00,2013-05-25 23:21:00,
2013-05-25 19:30:00,63.5,56.9,30.19,NNW,334,0.0,0.0,79,0.00,,BKN055,0.00,VWS V14.00,2013-05-25 23:30:00,
2013-05-25 19:31:00,63.5,56.9,30.19,NNW,334,0.0,0.0,79,0.00,,BKN055,0.00,VWS V14.00,2013-05-25 23:31:00,
2013-05-25 19:40:00,63.5,57.2,30.18,NNE,28,0.0,0.0,80,0.00,,BKN055,0.00,VWS V14.00,2013-05-25 23:40:00,
2013-05-25 19:41:00,63.5,57.2,30.18,NNE,28,0.0,0.0,80,0.00,,BKN055,0.00,VWS V14.00,2013-05-25 23:41:00,
2013-05-25 19:50:00,63.5,56.5,30.19,NNE,28,0.0,0.0,78,0.00,,BKN055,0.00,VWS V14.00,2013-05-25 23:50:00,
2013-05-25 19:51:00,63.5,56.5,30.19,NNE,28,0.0,0.0,78,0.00,,BKN055,0.00,VWS V14.00,2013-05-25 23:51:00,
2013-05-25 20:00:00,63.2,56.2,30.19,NNE,28,0.0,0.0,78,0.00,,BKN055,0.00,VWS V14.00,2013-05-26 00:00:00,
2013-05-25 20:01:00,63.2,56.2,30.19,NNE,28,0.0,0.0,78,0.00,,BKN055,0.00,VWS V14.00,2013-05-26 00:01:00,
2013-05-25 20:10:00,62.7,56.8,30.20,NNE,28,0.0,0.0,81,0.00,,BKN055,0.00,VWS V14.00,2013-05-26 00:10:00,
2013-05-25 20:11:00,62.7,56.8,30.20,NNE,28,0.0,0.0,81,0.00,,BKN055,0.00,VWS V14.00,2013-05-26 00:11:00,
2013-05-25 20:20:00,62.5,57.3,30.20,NNE,28,0.0,0.0,83,0.00,,BKN055,0.00,VWS V14.00,2013-05-26 00:20:00,
2013-05-25 20:21:00,62.5,57.3,30.20,NNE,28,0.0,0.0,83,0.00,,BKN055,0.00,VWS V14.00,2013-05-26 00:21:00,
2013-05-25 20:30:00,61.8,56.6,30.21,NNE,28,0.0,0.0,83,0.00,,BKN055,0.00,VWS V14.00,2013-05-26 00:30:00,
2013-05-25 20:31:00,61.8,56.6,30.21,NNE,28,0.0,0.0,83,0.00,,BKN055,0.00,VWS V14.00,2013-05-26 00:31:00,
2013-05-25 20:40:00,61.4,56.9,30.21,NNE,28,0.0,0.0,85,0.00,,BKN055,0.00,VWS V14.00,2013-05-26 00:40:00,
2013-05-25 20:41:00,61.4,56.9,30.21,NNE,28,0.0,0.0,85,0.00,,BKN055,0.00,VWS V14.00,2013-05-26 00:41:00,
2013-05-25 20:50:00,60.8,55.9,30.21,NNE,28,0.0,1.0,84,0.00,,BKN055,0.00,VWS V14.00,2013-05-26 00:50:00,
2013-05-25 20:51:00,60.8,55.9,30.21,NNE,28,0.0,1.0,84,0.00,,BKN055,0.00,VWS V14.00,2013-05-26 00:51:00,
2013-05-25 21:00:00,60.4,56.2,30.21,South,173,0.0,2.0,86,0.00,,BKN055,0.00,VWS V14.00,2013-05-26 01:00:00,
2013-05-25 21:01:00,60.4,56.2,30.21,South,173,0.0,2.0,86,0.00,,BKN055,0.00,VWS V14.00,2013-05-26 01:01:00,
2013-05-25 21:10:00,60.0,55.8,30.21,NW,315,0.0,2.0,86,0.00,,BKN055,0.00,VWS V14.00,2013-05-26 01:10:00,
2013-05-25 21:11:00,60.0,55.8,30.21,NW,315,0.0,2.0,86,0.00,,BKN055,0.00,VWS V14.00,2013-05-26 01:11:00,
2013-05-25 21:20:00,59.7,55.8,30.21,NW,319,0.0,1.0,87,0.00,,BKN055,0.00,VWS V14.00,2013-05-26 01:20:00,
2013-05-25 21:21:00,59.7,55.8,30.21,NW,319,0.0,1.0,87,0.00,,BKN055,0.00,VWS V14.00,2013-05-26 01:21:00,
2013-05-25 21:30:00,59.4,55.8,30.21,NW,319,0.0,0.0,88,0.00,,BKN055,0.00,VWS V14.00,2013-05-26 01:30:00,
2013-05-25 21:31:00,59.4,55.8,30.21,NW,319,0.0,0.0,88,0.00,,BKN055,0.00,VWS V14.00,2013-05-26 01:31:00,
2013-05-25 21:40:00,59.0,55.8,30.23,NNW,327,0.0,3.0,89,0.00,,BKN055,0.00,VWS V14.00,2013-05-26 01:40:00,
2013-05-25 21:41:00,59.0,55.8,30.23,NNW,327,0.0,3.0,89,0.00,,BKN055,0.00,VWS V14.00,2013-05-26 01:41:00,
2013-05-25 21:50:00,59.0,55.8,30.23,NNW,340,1.0,4.0,89,0.00,,BKN055,0.00,VWS V14.00,2013-05-26 01:50:00,
2013-05-25 21:51:00,59.0,55.8,30.23,NNW,340,1.0,4.0,89,0.00,,BKN055,0.00,VWS V14.00,2013-05-26 01:51:00,
2013-05-25 22:00:00,58.7,55.5,30.24,NNW,327,2.0,5.0,89,0.00,,BKN055,0.00,VWS V14.00,2013-05-26 02:00:00,
2013-05-25 22:01:00,58.7,55.5,30.24,NNW,327,2.0,5.0,89,0.00,,BKN055,0.00,VWS V14.00,2013-05-26 02:01:00,
2013-05-25 22:10:00,58.6,55.7,30.25,NW,325,0.0,3.0,90,0.00,,BKN055,0.00,VWS V14.00,2013-05-26 02:10:00,
2013-05-25 22:11:00,58.6,55.7,30.25,NW,325,0.0,3.0,90,0.00,,BKN055,0.00,VWS V14.00,2013-05-26 02:11:00,
2013-05-25 22:20:00,58.4,55.8,30.25,NW,325,0.0,1.0,91,0.00,,BKN055,0.00,VWS V14.00,2013-05-26 02:20:00,
2013-05-25 22:21:00,58.4,55.8,30.25,NW,325,0.0,1.0,91,0.00,,BKN055,0.00,VWS V14.00,2013-05-26 02:21:00,
2013-05-25 22:30:00,58.0,55.7,30.26,NW,325,0.0,0.0,92,0.00,,BKN055,0.00,VWS V14.00,2013-05-26 02:30:00,
2013-05-25 22:31:00,58.0,55.7,30.26,NW,325,0.0,0.0,92,0.00,,BKN055,0.00,VWS V14.00,2013-05-26 02:31:00,
2013-05-25 22:40:00,57.8,55.8,30.27,NW,325,0.0,2.0,93,0.00,,BKN055,0.00,VWS V14.00,2013-05-26 02:40:00,
2013-05-25 22:41:00,57.8,55.8,30.27,NW,325,0.0,2.0,93,0.00,,BKN055,0.00,VWS V14.00,2013-05-26 02:41:00,
2013-05-25 22:50:00,57.6,55.9,30.27,NW,325,0.0,0.0,94,0.00,,BKN055,0.00,VWS V14.00,2013-05-26 02:50:00,
2013-05-25 22:51:00,57.6,55.9,30.27,NW,325,0.0,0.0,94,0.00,,BKN055,0.00,VWS V14.00,2013-05-26 02:51:00,
2013-05-25 23:00:00,57.5,56.1,30.26,NW,325,0.0,0.0,95,0.00,,BKN055,0.00,VWS V14.00,2013-05-26 03:00:00,
2013-05-25 23:01:00,57.5,56.1,30.26,NW,325,0.0,0.0,95,0.00,,BKN055,0.00,VWS V14.00,2013-05-26 03:01:00,
2013-05-25 23:10:00,57.4,56.0,30.26,NW,325,0.0,0.0,95,0.00,,BKN055,0.00,VWS V14.00,2013-05-26 03:10:00,
2013-05-25 23:11:00,57.4,56.0,30.26,NW,325,0.0,0.0,95,0.00,,BKN055,0.00,VWS V14.00,2013-05-26 03:11:00,
2013-05-25 23:20:00,57.2,55.8,30.26,NW,325,0.0,1.0,95,0.00,,BKN055,0.00,VWS V14.00,2013-05-26 03:20:00,
2013-05-25 23:21:00,57.2,55.8,30.26,NW,325,0.0,1.0,95,0.00,,BKN055,0.00,VWS V14.00,2013-05-26 03:21:00,
2013-05-25 23:30:00,57.0,55.6,30.26,NW,325,0.0,1.0,95,0.00,,BKN055,0.00,VWS V14.00,2013-05-26 03:30:00,
2013-05-25 23:31:00,57.0,55.6,30.26,NW,325,0.0,1.0,95,0.00,,BKN055,0.00,VWS V14.00,2013-05-26 03:31:00,
2013-05-25 23:40:00,56.9,55.8,30.27,NW,325,0.0,1.0,96,0.00,,BKN055,0.00,VWS V14.00,2013-05-26 03:40:00,
2013-05-25 23:41:00,56.9,55.8,30.27,NW,325,0.0,1.0,96,0.00,,BKN055,0.00,VWS V14.00,2013-05-26 03:41:00,
2013-05-25 23:50:00,56.8,55.7,30.27,NW,325,0.0,1.0,96,0.00,,BKN055,0.00,VWS V14.00,2013-05-26 03:50:00,
2013-05-25 23:51:00,56.8,55.7,30.27,NW,325,0.0,1.0,96,0.00,,BKN055,0.00,VWS V14.00,2013-05-26 03:51:00,